When you browse on this site, cookies collect data to enhance your experience and personalize the content and advertising you see.
Visit our Privacy Policy to learn more. By continuing to use the site, you agree to this use of cookies and data.
  • In United Kingdom
  • List of Countries
  • For 7 days
  • Water Temperature
  • Weather Map
  • Weather Widgets
  • user-avatar
    Login

    Hourly Weather Pechykhvosty

    Today, 22 November, Friday

    Time Temperature Precipitation Wind Pressure Humidity
    00:00 -1°C° 0 mm 9 mps 746 mmHg 71%
    01:00 -1°C° 0 mm 8 mps 747 mmHg 70%
    02:00 -2°C° 0 mm 8 mps 747 mmHg 68%
    03:00 -2°C° 0 mm 8 mps 747 mmHg 68%
    04:00 -4°C° 0 mm 8 mps 747 mmHg 67%
    05:00 -4°C° 0 mm 8 mps 747 mmHg 67%
    06:00 -5°C° 0 mm 8 mps 747 mmHg 66%
    07:00 -5°C° 0 mm 8 mps 747 mmHg 65%
    08:00 -6°C° 0 mm 8 mps 747 mmHg 65%
    09:00 -5°C° 0 mm 8 mps 747 mmHg 63%
    10:00 -5°C° 0 mm 8 mps 747 mmHg 60%
    11:00 -4°C° 0 mm 8 mps 747 mmHg 58%
    12:00 -4°C° 0 mm 8 mps 747 mmHg 56%
    13:00 -2°C° 0 mm 8 mps 747 mmHg 55%
    14:00 -1°C° 0 mm 8 mps 747 mmHg 53%
    15:00 -2°C° 0 mm 7 mps 746 mmHg 52%
    16:00 -3°C° 0 mm 7 mps 746 mmHg 52%
    17:00 -4°C° 0 mm 7 mps 746 mmHg 51%
    18:00 -4°C° 0 mm 7 mps 746 mmHg 50%
    19:00 -4°C° 0 mm 7 mps 746 mmHg 50%
    20:00 -6°C° 0 mm 7 mps 746 mmHg 49%
    21:00 -6°C° 0 mm 7 mps 746 mmHg 49%
    22:00 -6°C° 0 mm 7 mps 746 mmHg 49%
    23:00 -6°C° 0 mm 7 mps 746 mmHg 49%

    Tomorrow, 23 November, Saturday

    Time Temperature Precipitation Wind Pressure Humidity
    00:00 -6°C° 0 mm 7 mps 746 mmHg 49%
    01:00 -6°C° 0 mm 7 mps 746 mmHg 50%
    02:00 -6°C° 0 mm 7 mps 746 mmHg 51%
    03:00 -6°C° 0 mm 7 mps 745 mmHg 52%
    04:00 -6°C° 0 mm 7 mps 745 mmHg 54%
    05:00 -5°C° 0 mm 6 mps 745 mmHg 56%
    06:00 -6°C° 0 mm 7 mps 745 mmHg 58%
    07:00 -6°C° 0 mm 7 mps 745 mmHg 59%
    08:00 -4°C° 0 mm 7 mps 745 mmHg 61%
    09:00 -4°C° 0 mm 7 mps 745 mmHg 60%
    10:00 -4°C° 0 mm 7 mps 745 mmHg 59%
    11:00 -3°C° 0 mm 7 mps 745 mmHg 58%
    12:00 -3°C° 0 mm 7 mps 744 mmHg 59%
    13:00 -2°C° 0 mm 7 mps 744 mmHg 60%
    14:00 -2°C° 0 mm 6 mps 744 mmHg 60%
    15:00 -2°C° 0 mm 6 mps 744 mmHg 63%
    16:00 -3°C° 0 mm 6 mps 744 mmHg 66%
    17:00 -3°C° 0 mm 6 mps 743 mmHg 68%
    18:00 -3°C° 0 mm 6 mps 743 mmHg 69%
    19:00 -4°C° 0 mm 6 mps 744 mmHg 70%
    20:00 -4°C° 0 mm 6 mps 744 mmHg 71%
    21:00 -4°C° 0 mm 6 mps 744 mmHg 71%
    22:00 -4°C° 0 mm 6 mps 744 mmHg 71%
    23:00 -5°C° 0 mm 6 mps 743 mmHg 71%

    Day after tomorrow, 24 November, Sunday

    Time Temperature Precipitation Wind Pressure Humidity
    00:00 -5°C° 0 mm 5 mps 743 mmHg 72%
    01:00 -5°C° 0 mm 5 mps 743 mmHg 72%
    02:00 -5°C° 0 mm 5 mps 743 mmHg 73%
    03:00 -5°C° 0 mm 5 mps 743 mmHg 74%
    04:00 -5°C° 0 mm 5 mps 743 mmHg 75%
    05:00 -5°C° 0 mm 5 mps 743 mmHg 76%
    06:00 -5°C° 0 mm 5 mps 743 mmHg 77%
    07:00 -5°C° 0 mm 5 mps 743 mmHg 78%
    08:00 -5°C° 0 mm 5 mps 743 mmHg 80%
    09:00 -2°C° 0 mm 5 mps 743 mmHg 76%
    10:00 -2°C° 0 mm 6 mps 743 mmHg 72%
    11:00 -1°C° 0 mm 6 mps 743 mmHg 69%
    12:00 -1°C° 0 mm 6 mps 743 mmHg 68%
    13:00 +1°C° 0 mm 6 mps 742 mmHg 67%
    14:00 +1°C° 0 mm 6 mps 742 mmHg 66%
    15:00 0°C° 0 mm 5 mps 742 mmHg 70%
    16:00 -1°C° 0 mm 5 mps 742 mmHg 74%
    17:00 -2°C° 0 mm 5 mps 742 mmHg 78%
    18:00 -2°C° 0 mm 5 mps 742 mmHg 79%
    19:00 -2°C° 0 mm 5 mps 742 mmHg 79%
    20:00 -4°C° 0 mm 5 mps 742 mmHg 80%
    21:00 -4°C° 0 mm 5 mps 742 mmHg 81%
    22:00 -4°C° 0 mm 5 mps 741 mmHg 82%
    23:00 -4°C° 0 mm 5 mps 741 mmHg 83%

    25 November, Monday

    Time Temperature Precipitation Wind Pressure Humidity
    00:00 -4°C° 0 mm 5 mps 741 mmHg 84%
    01:00 -3°C° 0 mm 4 mps 741 mmHg 84%
    02:00 -3°C° 0 mm 4 mps 741 mmHg 85%
    03:00 -3°C° 0 mm 4 mps 741 mmHg 86%
    04:00 -3°C° 0 mm 4 mps 741 mmHg 86%
    05:00 -3°C° 0 mm 4 mps 740 mmHg 86%
    06:00 -2°C° 0 mm 4 mps 740 mmHg 87%
    07:00 -2°C° 0 mm 4 mps 740 mmHg 87%
    08:00 -2°C° 0 mm 5 mps 740 mmHg 88%
    09:00 -1°C° 0 mm 4 mps 740 mmHg 86%
    10:00 0°C° 0 mm 4 mps 740 mmHg 84%
    11:00 0°C° 0 mm 4 mps 741 mmHg 82%
    12:00 +1°C° 0 mm 4 mps 740 mmHg 81%
    13:00 +1°C° 0 mm 4 mps 740 mmHg 79%
    14:00 +3°C° 0 mm 3 mps 740 mmHg 78%
    15:00 +2°C° 0.1 mm 3 mps 740 mmHg 80%
    16:00 +2°C° 0.1 mm 3 mps 740 mmHg 83%
    17:00 +2°C° 0.1 mm 3 mps 740 mmHg 86%
    18:00 +2°C° 0.2 mm 3 mps 740 mmHg 86%
    19:00 +1°C° 0.2 mm 4 mps 739 mmHg 87%
    20:00 +1°C° 0.2 mm 4 mps 739 mmHg 88%
    21:00 +1°C° 0.1 mm 4 mps 739 mmHg 88%
    22:00 +1°C° 0.1 mm 4 mps 739 mmHg 89%
    23:00 +2°C° 0.1 mm 3 mps 739 mmHg 90%

    26 November, Tuesday

    Time Temperature Precipitation Wind Pressure Humidity
    00:00 +2°C° 0.3 mm 3 mps 739 mmHg 91%
    01:00 +2°C° 0.3 mm 3 mps 739 mmHg 91%
    02:00 +2°C° 0.3 mm 3 mps 738 mmHg 92%
    03:00 +2°C° 0.2 mm 3 mps 738 mmHg 93%
    04:00 +3°C° 0.2 mm 3 mps 738 mmHg 93%
    05:00 +4°C° 0.2 mm 2 mps 738 mmHg 93%
    06:00 +4°C° 0 mm 2 mps 738 mmHg 94%
    07:00 +4°C° 0 mm 2 mps 738 mmHg 94%
    08:00 +4°C° 0 mm 2 mps 738 mmHg 94%
    09:00 +5°C° 0 mm 2 mps 738 mmHg 92%
    10:00 +5°C° 0 mm 2 mps 738 mmHg 90%
    11:00 +6°C° 0 mm 2 mps 738 mmHg 89%
    12:00 +5°C° 0 mm 3 mps 738 mmHg 87%
    13:00 +5°C° 0 mm 3 mps 737 mmHg 86%
    14:00 +7°C° 0 mm 3 mps 737 mmHg 84%
    15:00 +5°C° 0.1 mm 3 mps 737 mmHg 87%
    16:00 +6°C° 0.1 mm 2 mps 737 mmHg 90%
    17:00 +5°C° 0.1 mm 2 mps 737 mmHg 93%
    18:00 +5°C° 0.3 mm 2 mps 736 mmHg 93%
    19:00 +5°C° 0.3 mm 2 mps 736 mmHg 94%
    20:00 +5°C° 0.3 mm 2 mps 736 mmHg 95%
    21:00 +5°C° 0.3 mm 2 mps 736 mmHg 95%
    22:00 +5°C° 0.3 mm 2 mps 736 mmHg 95%
    23:00 +6°C° 0.3 mm 2 mps 736 mmHg 95%

    27 November, Wednesday

    Time Temperature Precipitation Wind Pressure Humidity
    00:00 +5°C° 0.2 mm 3 mps 735 mmHg 95%
    01:00 +5°C° 0.2 mm 3 mps 735 mmHg 94%
    02:00 +5°C° 0.2 mm 3 mps 735 mmHg 94%
    03:00 +5°C° 0.2 mm 3 mps 735 mmHg 94%
    04:00 +4°C° 0.2 mm 3 mps 735 mmHg 94%
    05:00 +4°C° 0.2 mm 3 mps 735 mmHg 94%
    06:00 +4°C° 0 mm 3 mps 735 mmHg 94%
    07:00 +4°C° 0 mm 3 mps 734 mmHg 94%
    08:00 +4°C° 0 mm 3 mps 734 mmHg 94%
    09:00 +5°C° 0 mm 3 mps 734 mmHg 89%
    10:00 +7°C° 0 mm 3 mps 735 mmHg 84%
    11:00 +8°C° 0 mm 3 mps 735 mmHg 80%
    12:00 +7°C° 0 mm 4 mps 734 mmHg 77%
    13:00 +8°C° 0 mm 4 mps 734 mmHg 74%
    14:00 +10°C° 0 mm 4 mps 734 mmHg 71%
    15:00 +8°C° 0 mm 4 mps 733 mmHg 74%
    16:00 +7°C° 0 mm 4 mps 733 mmHg 77%
    17:00 +6°C° 0 mm 4 mps 733 mmHg 81%
    18:00 +7°C° 0 mm 4 mps 733 mmHg 79%
    19:00 +7°C° 0 mm 5 mps 733 mmHg 77%
    20:00 +7°C° 0 mm 5 mps 733 mmHg 75%
    21:00 +7°C° 0.1 mm 5 mps 733 mmHg 80%
    22:00 +7°C° 0.1 mm 4 mps 733 mmHg 84%
    23:00 +7°C° 0.1 mm 4 mps 733 mmHg 88%
    Show more